Regional Weather Roundup
Issued by NWS

Home | Current Version | Previous Version | Text Only | Print | Product List | Glossary On
Versions: 1 2 3 4 5 6 7 8 9 10 11 12 13 14 15 16 17 18 19 20 21 22 23 24 25 26 27 28 29 30 31 32 33 34 35 36 37 38 39 40 41 42 43 44 45 46 47 48 49 50
000
ASUS43 KMKX 240111
RWRWI

WISCONSIN REGIONAL WEATHER ROUNDUP
NATIONAL WEATHER SERVICE MILWAUKEE/SULLIVAN WI
800 PM CDT WED AUG 23 2017

NOTE: "FAIR" INDICATES FEW OR NO CLOUDS BELOW 12,000 FEET WITH NO
SIGNIFICANT WEATHER AND/OR OBSTRUCTIONS TO VISIBILITY.

WIZ001-002-006>008-014>016-023>028-240200-
NORTHWEST WISCONSIN

CITY           SKY/WX    TMP DP  RH WIND       PRES   REMARKS
SUPERIOR ARPT    N/A     58  55  91 CALM      30.05F
ASHLAND        CLEAR     55  48  77 SE3       30.08S
HAYWARD        CLEAR     58  51  78 CALM      30.07R
SIREN          CLEAR     61  52  72 CALM      30.05F
CUMBERLAND     CLEAR     59  48  67 CALM      30.06S
RICE LAKE      CLEAR     60  51  73 CALM      30.07S
CHETEK         CLEAR     63  51  65 N6        30.06R
LADYSMITH      CLEAR     59  52  78 CALM      30.08R
EAU CLAIRE     CLEAR     64  51  62 N3        30.04R
MENOMONIE      CLEAR     65  50  57 N3        30.04S
NEW RICHMOND   CLEAR     62  52  69 CALM      30.04S
OSCEOLA        CLEAR     65  52  64 NE3       30.06S
$$

WIZ003>005-009-010-017-018-240200-
NORTH CENTRAL WISCONSIN

CITY           SKY/WX    TMP DP  RH WIND       PRES   REMARKS
MANITOWISH WTR CLEAR     51  45  77 CALM      30.08S
ARBOR VITAE    CLEAR     55  45  69 CALM      30.08R
WOODRUFF       CLEAR     55  45  69 CALM      30.08R
RHINELANDER    CLEAR     55  43  63 N3        30.08R
EAGLE RIVER    CLEAR     52  41  64 N3        30.07R
LAND O LAKES   CLEAR     53  39  59 N6        30.09S
PHILLIPS       PTCLDY    57  49  75 NE6       30.07R
TOMAHAWK         N/A     55  45  69 CALM      30.07R
MEDFORD        CLEAR     57  47  67 CALM      30.05R
MERRILL        CLEAR     57  50  77 NE5       30.06R
$$

WIZ029-030-035-036-043>047-240200-
CENTRAL WISCONSIN

CITY           SKY/WX    TMP DP  RH WIND       PRES   REMARKS
WAUSAU         CLEAR     63  46  54 N6        30.02R
MOSINEE        PTCLDY    61  48  63 N6        30.04S
MARSHFIELD     CLEAR     60  49  66 NW6       30.03S
STEVENS POINT  CLEAR     62  49  63 CALM      30.03S
WAUPACA        CLEAR     64  52  63 CALM      30.02R
WAUTOMA        NOT AVBL
WISC RAPIDS    CLEAR     62  49  62 NW5       30.04S
CAMP DOUGLAS   PTCLDY    61  52  72 CALM      30.03R
$$

WIZ011>013-019>022-031-037>040-048>050-240200-
NORTHEAST WISCONSIN

CITY           SKY/WX    TMP DP  RH WIND       PRES   REMARKS
ANTIGO         CLEAR     54  47  76 N8        30.05R
SHAWANO        CLEAR     63  50  61 NW3       30.01S
OCONTO         MOCLDY    63  55  75 N3        30.01R
STURGEON BAY   MOCLDY    63  53  70 E3        30.02S
GREEN BAY      CLEAR     60  56  86 N5        30.00S
MANITOWOC      CLOUDY    64  55  72 S6        30.01S
APPLETON       PTCLDY    63  46  55 N5        30.00R
CLINTONVILLE   CLEAR     64  45  48 CALM      30.01S
OSHKOSH        CLEAR     64  51  62 W3        30.00S
$$

WIZ032>034-041-042-053>061-240200-
SOUTHWEST WISCONSIN

CITY           SKY/WX    TMP DP  RH WIND       PRES   REMARKS
LA CROSSE      CLEAR     68  53  58 N3        30.02S
SPARTA         CLEAR     62  54  75 CALM      30.05R
VIROQUA        CLEAR     63  54  73 CALM      30.05R
BOSCOBEL       CLEAR     65  54  67 CALM      30.02S
PRAIRIE DU CHI CLEAR     67  53  59 CALM      30.02S
PLATTEVILLE    CLEAR     65  54  67 CALM      30.04R
$$

WIZ056-057-062-063-064-067-068-240200-
SOUTH CENTRAL WISCONSIN

CITY           SKY/WX    TMP DP  RH WIND       PRES   REMARKS
REEDSBURG      CLEAR     65  51  60 NW3       30.02S
BARABOO/DELLS  CLEAR     65  49  57 CALM      30.03S
LONE ROCK      CLEAR     63  57  81 N5        30.02S
MINERAL POINT  CLEAR     64  54  68 CALM      30.04S
MADISON        PTCLDY    63  55  75 NW3       30.01S
MIDDLETON      CLEAR     63  57  81 CALM      30.03S
WATERTOWN      CLEAR     65  53  65 CALM      30.01S
MONROE         CLEAR     66  52  59 NW3       30.03S
JANESVILLE     CLEAR     66  54  63 CALM      30.01S
$$

WIZ051-052-058>065-066-070>072-240200-
SOUTHEAST WISCONSIN

CITY           SKY/WX    TMP DP  RH WIND       PRES   REMARKS
MILWAUKEE      PTCLDY    65  57  75 SE6       30.00S
WAUKESHA       CLEAR     64  48  55 NW6       30.02S
MILWAUKEE/TIMM PTCLDY    66  50  55 E3        30.02R
RACINE         CLOUDY    67  57  70 S5        30.03R
KENOSHA        PTCLDY    65  55  70 S6        30.01S
FOND DU LAC    MOCLDY    64  52  64 W3        30.01S
SHEBOYGAN      CLEAR     62  57  83 SE6       30.00S
WEST BEND      CLEAR     61  54  77 CALM      30.01S
JUNEAU         CLEAR     63  51  63 CALM      30.03R
$$

LSZ147-162-240200-
LAKE SUPERIOR

STATION/POSITION TIME  TEMP    WIND        PRES    WAVE
                       AIR SEA DIR/SP/G            HT/PER
                 (UTC) (F)     (DEG/KT/KT) (MB)    (FT/S)
W MID LAKE BUOY  0050   60 60  250/ 10/ 12 1018.1R   1
DEVILS ISLAND    0100   60     180/  6/  7 1018.4R
PORT WING        0040   70     120/  2/  3 1017.9S
SAXON HARBOR     0030   57     200/  2/  3 1018.3R
$$

LMZ867-665-643>646-240200-
LAKE MICHIGAN

STATION/POSITION TIME  TEMP    WIND        PRES    WAVE
                       AIR SEA DIR/SP/G            HT/PER
                 (UTC) (F)     (DEG/KT/KT) (MB)    (FT/S)
S GREEN BAY BUOY 0100   68 71   90/ 10/ 12 1015.8
N MID LAKE BUOY  0050   61 66  360/ 16/ 17 1017.0R   1/12
NORTHPORT PIER   0040   63      20/ 10/ 14 1016.6R
KEWAUNEE LAKESHO 0048   64     200/  2/  4 1015.4R
SHEBOYGAN LAKESH 0100   66     140/ 10/ 11 1015.8S
PORT WASHINGTON  0030   68     140/  6/  7 1016.9R
ATWATER BUOY     0039   68 70  160/  6/ 10 1016.2F
MILWAUKEE LAKESH 0050   67     150/  7/  8   N/A
S MID LAKE BUOY  0050   66 71   50/  2/  4 1016.2F   2/ 6
KENOSHA   LAKESH 0100   68     180/  5/  7 1015.9
$$

TC  - TEMPERATURE IN CELSIUS
VSB - VISIBILITY IN STATUTE MILES
WCI - WIND CHILL INDEX
HX  - HEAT INDEX




USA.gov is the U.S. government's official web portal to all federal, state and local government web resources and services.